Regional Weather Roundup
Issued by NWS

Home | Current Version | Previous Version | Graphics & Text | Print | Product List | Glossary On
Versions: 1 2 3 4 5 6 7 8 9 10 11 12 13 14 15 16 17 18 19 20 21 22 23 24 25 26 27 28 29 30 31 32 33 34 35 36 37 38 39 40 41 42 43 44 45 46 47 48 49 50
191
ASUS45 KBOI 220710
RWRID

IDAHO REGIONAL WEATHER ROUNDUP
NATIONAL WEATHER SERVICE BOISE ID
100 AM MDT TUE AUG 22 2017

NOTE: "FAIR" INDICATES FEW OR NO CLOUDS BELOW 12000 FEET
WITH NO SIGNIFICANT WEATHER AND/OR OBSTRUCTIONS TO VISIBILITY

IDZ012-014-220800-
SOUTHWEST IDAHO


CITY           SKY/WX    TMP DP  RH WIND       PRES   REMARKS
BOISE          CLEAR     67  40  37 SE7       30.06R
CALDWELL       CLEAR     59  50  72 E3        30.04S
MOUNTAIN HOME  CLEAR     64  40  42 CALM      30.07R
$$

IDZ016-017-220800-
SOUTHCENTRAL IDAHO


CITY           SKY/WX    TMP DP  RH WIND       PRES   REMARKS
BURLEY         CLEAR     54  41  61 S5        30.15S
JEROME         CLEAR     59  42  53 E8        30.16R
TWIN FALLS     CLEAR     61  35  37 S12       30.16S
$$

IDZ019>023-220800-
SOUTHEAST IDAHO


CITY           SKY/WX    TMP DP  RH WIND       PRES   REMARKS
IDAHO FALLS    CLEAR     52  43  71 CALM      30.21R
POCATELLO      CLEAR     57  34  41 E5        30.19S
REXBURG        CLEAR     52  43  71 NE3       30.22R
$$

IDZ006-010-011-018-031-032-220800-
CENTRAL IDAHO MOUNTAINS


CITY           SKY/WX    TMP DP  RH WIND       PRES   REMARKS
MCCALL         CLEAR     56  38  50 CALM      30.19S
HAILEY         CLEAR     57  37  47 NW8       30.26R
STANLEY          N/A     52  32  46 S6        30.32R
SALMON         CLEAR     51  40  65 SE3       30.17R
CHALLIS        CLEAR     57  37  47 CALM      30.21R
$$

IDZ002-004-006-007-026-220800-
NORTHERN IDAHO


CITY           SKY/WX    TMP DP  RH WIND       PRES   REMARKS
LEWISTON       CLEAR     70  38  31 S5        30.01S
LOWELL           N/A     60  50  69 CALM      30.08S
COEUR D`ALENE  CLEAR     60  45  57 CALM      30.09S
MULLAN PASS    CLEAR     61  34  36 CALM      30.28S
$$




USA.gov is the U.S. government's official web portal to all federal, state and local government web resources and services.